AMC-14

Last updated on Aug. 12, 2020, 5:32 a.m. UTC

1 32708U 08011A   20224.68812295  .00000079  00000-0  00000-0 0  9997
2 32708  21.0496  46.7331 0039843   9.2236 170.4453  1.00268636 46744
UTC
Height (km)
Latitude
Longitude
Inclination
Orbital Period
UTC large
Height (km)
Speed (km/s)
/
Latitude / Longitude
Inclination (degrees)
Orbital Period (minutes)
Azimuth
Elevation
Range (km)
Doppler Factor
iOS Compass Heading
iOS Angle

Next 30 passes for location: Hong Kong

Rise time Rise Azimuth (degrees) Set time Set Azimuth (degrees) Duration Max altitude (degrees)

No matching passes for this satellites